FW7007 Weather Reports


time (UTC)temp
F
wind
direction
speed
knots
gust
knots
rain 1hr
in
rain 24hr
in
rain mn
in
humidity
%
barometer
mb
20260505193832 74 106 0.0 0.9 0.00 0.00 0.00 53 1013.6
20260505193330 73 98 0.9 0.9 0.00 0.00 0.00 55 1013.7
20260505192827 73 117 0.0 0.9 0.00 0.00 0.00 49 1013.9
20260505192325 73 104 0.0 1.7 0.00 0.00 0.00 52 1013.6
20260505191823 73 107 0.0 1.7 0.00 0.00 0.00 50 1014.0
20260505191321 73 152 1.7 2.6 0.00 0.00 0.00 51 1014.2
20260505190817 74 82 0.9 1.7 0.00 0.00 0.00 48 1014.2
20260505190313 74 90 0.9 1.7 0.00 0.00 0.00 50 1014.3
20260505185809 73 96 0.9 1.7 0.00 0.00 0.00 49 1014.4
20260505185306 73 130 0.9 1.7 0.00 0.00 0.00 49 1014.4
20260505184801 74 110 0.0 2.6 0.00 0.00 0.00 49 1014.5
20260505184259 74 113 2.6 2.6 0.00 0.00 0.00 49 1014.5
20260505183756 75 95 0.0 1.7 0.00 0.00 0.00 49 1014.7
20260505183253 74 101 0.0 2.6 0.00 0.00 0.00 49 1014.6
20260505182750 74 118 0.9 1.7 0.00 0.00 0.00 48 1015.1
20260505182246 74 70 1.7 5.2 0.00 0.00 0.00 49 1015.0
20260505181742 74 94 0.9 2.6 0.00 0.00 0.00 50 1015.0
20260505181240 74 94 0.9 1.7 0.00 0.00 0.00 52 1015.1
20260505180737 74 40 0.9 2.6 0.00 0.00 0.00 51 1015.4
20260505180233 74 96 0.0 2.6 0.00 0.00 0.00 56 1015.5
20260505175730 74 94 0.9 1.7 0.00 0.00 0.00 52 1015.6
20260505175226 73 86 0.9 1.7 0.00 0.00 0.00 53 1015.5
20260505174723 73 97 1.7 2.6 0.00 0.00 0.00 53 1015.5
20260505174220 73 86 0.9 4.3 0.00 0.00 0.00 53 1015.4
20260505173716 73 96 0.9 1.7 0.00 0.00 0.00 52 1015.9
20260505173213 73 97 0.0 5.2 0.00 0.00 0.00 52 1016.0
20260505172710 74 111 0.9 2.6 0.00 0.00 0.00 54 1016.1
20260505172207 74 144 1.7 1.7 0.00 0.00 0.00 53 1016.1
20260505171706 73 125 0.9 5.2 0.00 0.00 0.00 55 1016.2
20260505171204 74 173 2.6 4.3 0.00 0.00 0.00 53 1016.2
20260505170701 73 69 0.9 1.7 0.00 0.00 0.00 56 1016.2
20260505170158 73 111 1.7 1.7 0.00 0.00 0.00 58 1016.2
20260505165658 72 79 1.7 1.7 0.00 0.00 0.00 57 1016.3
20260505165154 72 111 0.9 0.9 0.00 0.00 0.00 58 1016.2
20260505164649 72 110 0.0 0.9 0.00 0.00 0.00 62 1016.4
20260505164147 73 106 0.9 1.7 0.00 0.00 0.00 56 1016.2
20260505163645 73 131 0.9 1.7 0.00 0.00 0.00 57 1016.5
20260505163143 72 106 0.0 1.7 0.00 0.00 0.00 57 1016.7
20260505162640 72 86 1.7 1.7 0.00 0.00 0.00 56 1016.5
20260505162138 72 88 1.7 2.6 0.00 0.00 0.00 58 1016.5
20260505161635 72 73 0.0 1.7 0.00 0.00 0.00 58 1016.5
20260505161132 72 79 0.9 1.7 0.00 0.00 0.00 58 1016.4
20260505160630 72 49 2.6 2.6 0.00 0.00 0.00 57 1016.6
20260505160127 73 35 1.7 1.7 0.00 0.00 0.00 56 1016.5
20260505153107 71 122 0.9 2.6 0.00 0.00 0.00 60 1016.3
20260505152603 70 99 0.9 0.9 0.00 0.00 0.00 65 1016.2
20260505152058 69 133 0.9 2.6 0.00 0.00 0.00 64 1016.5
20260505151554 68 104 0.0 0.9 0.00 0.00 0.00 63 1016.3
20260505151052 68 105 0.9 1.7 0.00 0.00 0.00 65 1016.3
20260505150548 68 105 0.9 1.7 0.00 0.00 0.00 64 1016.3
20260505140513 65 93 0.0 0.0 0.00 0.00 0.00 67 1016.4
20260505124926 58 98 0.0 0.0 0.00 0.00 0.00 80 1016.4
20260505124423 57 98 0.0 0.0 0.00 0.00 0.00 81 1016.2
20260505123919 57 98 0.0 0.0 0.00 0.00 0.00 84 1016.4
20260505123416 56 98 0.0 0.0 0.00 0.00 0.00 86 1016.2
20260505122912 55 98 0.0 0.0 0.00 0.00 0.00 86 1016.2
20260505122409 55 98 0.0 0.0 0.00 0.00 0.00 87 1016.3
20260505121906 55 98 0.0 0.0 0.00 0.00 0.00 87 1016.4
20260505121403 54 98 0.0 0.0 0.00 0.00 0.00 88 1016.1
20260505120859 54 98 0.0 0.0 0.00 0.00 0.00 88 1016.2
20260505120355 54 98 0.0 0.0 0.00 0.00 0.00 88 1016.0
20260505115854 53 98 0.0 0.0 0.00 0.00 0.00 88 1016.1
20260505115351 53 98 0.0 0.0 0.00 0.00 0.00 88 1015.9
20260505114849 53 98 0.0 0.0 0.00 0.00 0.00 88 1016.1
20260505114346 53 98 0.0 0.0 0.00 0.00 0.00 88 1015.8
20260505113842 53 97 0.0 0.0 0.00 0.00 0.00 88 1016.0
20260505113338 53 97 0.0 0.0 0.00 0.00 0.00 89 1015.9
20260505112834 52 97 0.0 0.0 0.00 0.00 0.00 88 1015.6
20260505112332 52 97 0.0 0.0 0.00 0.00 0.00 88 1015.5
20260505111827 52 97 0.0 0.0 0.00 0.00 0.00 88 1015.4
20260505111323 52 97 0.0 0.0 0.00 0.00 0.00 87 1015.4
20260505110819 52 97 0.0 0.0 0.00 0.00 0.00 87 1015.2
20260505110317 52 97 0.0 0.0 0.00 0.00 0.00 87 1015.2
20260505101751 52 98 0.0 0.0 0.00 0.00 0.00 85 1015.1
20260505101247 53 98 0.0 0.0 0.00 0.00 0.00 85 1015.3
20260505100743 53 98 0.0 0.0 0.00 0.00 0.00 84 1015.4
20260505100240 53 98 0.0 0.0 0.00 0.00 0.00 84 1015.2
20260505095736 54 98 0.0 0.0 0.00 0.00 0.00 85 1015.2
20260505095234 54 97 0.0 0.0 0.00 0.00 0.00 84 1015.3
20260505094729 54 97 0.0 0.0 0.00 0.00 0.00 84 1015.3
20260505094226 54 97 0.0 0.0 0.00 0.00 0.00 82 1014.9
20260505093722 54 97 0.0 0.0 0.00 0.00 0.00 81 1014.8
20260505093220 54 97 0.0 0.0 0.00 0.00 0.00 81 1015.0
20260505092716 54 97 0.0 0.0 0.00 0.00 0.00 81 1015.0
20260505092215 54 97 0.0 0.0 0.00 0.00 0.00 81 1015.2
20260505091712 54 97 0.0 0.0 0.00 0.00 0.00 81 1014.9
20260505091210 54 97 0.0 0.0 0.00 0.00 0.00 81 1015.1
20260505090707 54 97 0.0 0.0 0.00 0.00 0.00 82 1015.1
20260505090205 54 97 0.0 0.0 0.00 0.00 0.00 82 1015.1
20260505085702 54 97 0.0 0.0 0.00 0.00 0.00 81 1015.0
20260505085200 54 97 0.0 0.0 0.00 0.00 0.00 81 1015.1
20260505084657 55 97 0.0 0.0 0.00 0.00 0.00 81 1014.8
20260505084156 55 97 0.0 0.0 0.00 0.00 0.00 80 1014.8
20260505083653 55 97 0.0 0.0 0.00 0.00 0.00 80 1014.9
20260505083150 55 97 0.0 0.0 0.00 0.00 0.00 80 1014.9
20260505082646 55 97 0.0 0.0 0.00 0.00 0.00 80 1014.8
20260505082143 55 97 0.0 0.0 0.00 0.00 0.00 80 1014.7
20260505081638 55 97 0.0 0.0 0.00 0.00 0.00 80 1014.7
20260505081136 56 97 0.0 0.0 0.00 0.00 0.00 79 1014.6
20260505080633 56 97 0.0 0.0 0.00 0.00 0.00 79 1014.5
20260505080129 56 97 0.0 0.0 0.00 0.00 0.00 78 1014.6
20260505075625 56 97 0.0 0.0 0.00 0.00 0.00 78 1014.7
20260505075122 56 97 0.0 0.0 0.00 0.00 0.00 77 1014.7
20260505074619 56 97 0.0 0.0 0.00 0.00 0.00 77 1014.6
20260505074116 57 97 0.0 0.0 0.00 0.00 0.00 77 1014.5
20260505073614 57 97 0.0 0.0 0.00 0.00 0.00 77 1014.5
20260505073112 57 97 0.0 0.0 0.00 0.00 0.00 77 1014.5
20260505072607 57 97 0.0 0.0 0.00 0.00 0.00 77 1014.7
20260505072104 57 97 0.0 0.0 0.00 0.00 0.00 76 1014.4
20260505071559 57 97 0.0 0.0 0.00 0.00 0.00 76 1014.7
20260505071057 57 97 0.0 0.0 0.00 0.00 0.00 76 1014.7
20260505070554 57 97 0.0 0.0 0.00 0.00 0.00 76 1014.8
20260505070050 58 97 0.0 0.0 0.00 0.00 0.00 75 1014.7
20260505065546 58 97 0.0 0.0 0.00 0.00 0.00 76 1014.5
20260505065043 58 97 0.0 0.0 0.00 0.00 0.00 76 1014.9
20260505064540 58 97 0.0 0.0 0.00 0.00 0.00 76 1014.8
20260505064038 58 97 0.0 0.0 0.00 0.00 0.00 76 1014.7
20260505063535 58 97 0.0 0.0 0.00 0.00 0.00 75 1014.8
20260505063031 58 97 0.0 0.0 0.00 0.00 0.00 75 1014.9
20260505062528 58 97 0.0 0.0 0.00 0.00 0.00 75 1014.8
20260505062025 58 97 0.0 0.0 0.00 0.00 0.00 75 1014.8
20260505061523 58 97 0.0 0.0 0.00 0.00 0.00 75 1014.6
20260505061020 58 97 0.0 0.0 0.00 0.00 0.00 75 1014.8
20260505060518 59 97 0.0 0.0 0.00 0.00 0.00 74 1014.6
20260505060014 59 97 0.0 0.0 0.00 0.00 0.00 74 1014.7
20260505055509 59 97 0.0 0.0 0.00 0.00 0.00 73 1014.4
20260505055006 59 97 0.0 0.0 0.00 0.00 0.00 73 1014.6
20260505054504 59 97 0.0 0.0 0.00 0.00 0.00 73 1014.8
20260505054002 59 97 0.0 0.0 0.00 0.00 0.00 72 1014.8
20260505053459 59 97 0.0 0.0 0.00 0.00 0.00 72 1014.6
20260505052955 59 97 0.0 0.0 0.00 0.00 0.00 71 1014.8
20260505052452 60 97 0.0 0.0 0.00 0.00 0.00 71 1014.9
20260505051949 60 97 0.0 0.0 0.00 0.00 0.00 71 1014.7
20260505051446 60 97 0.0 0.0 0.00 0.00 0.00 70 1014.8
20260505050945 60 97 0.0 0.0 0.00 0.00 0.00 70 1014.5
20260505050442 60 97 0.0 0.0 0.00 0.00 0.00 69 1014.3
20260505041410 61 97 0.0 0.0 0.00 0.00 0.00 67 1014.4
20260505040907 61 97 0.0 0.0 0.00 0.00 0.00 67 1014.2
20260505040405 61 97 0.0 0.0 0.00 0.00 0.00 67 1014.3
20260505035901 61 97 0.0 0.0 0.00 0.00 0.00 66 1014.3
20260505035357 61 97 0.0 0.0 0.00 0.00 0.00 66 1014.4
20260505034855 61 97 0.0 0.0 0.00 0.00 0.00 65 1014.3
20260505034351 62 97 0.0 0.0 0.00 0.00 0.00 65 1014.5
20260505033848 62 97 0.0 0.0 0.00 0.00 0.00 66 1014.4
20260505033345 62 97 0.0 0.0 0.00 0.00 0.00 65 1014.4
20260505032843 62 97 0.0 0.0 0.00 0.00 0.00 65 1014.4
20260505032340 62 97 0.0 0.0 0.00 0.00 0.00 65 1014.4
20260505031837 62 97 0.0 0.0 0.00 0.00 0.00 65 1014.5
20260505031333 62 97 0.0 0.0 0.00 0.00 0.00 65 1014.4
20260505030831 62 97 0.0 0.0 0.00 0.00 0.00 64 1014.3
20260505030326 63 96 0.0 0.0 0.00 0.00 0.00 64 1014.6
20260505025822 63 97 0.0 0.0 0.00 0.00 0.00 64 1014.5
20260505025320 63 97 0.0 0.0 0.00 0.00 0.00 63 1014.5
20260505024818 64 97 0.0 0.0 0.00 0.00 0.00 62 1014.4
20260505024315 64 97 0.0 0.0 0.00 0.00 0.00 62 1014.6
20260505023813 64 96 0.0 0.0 0.00 0.00 0.00 62 1014.8
20260505023309 64 96 0.0 0.0 0.00 0.00 0.00 62 1014.4
20260505022807 65 97 0.0 0.0 0.00 0.00 0.00 62 1014.6
20260505022304 65 96 0.0 0.0 0.00 0.00 0.00 61 1014.6
20260505021800 65 97 0.0 0.0 0.00 0.00 0.00 61 1014.6
20260505021257 66 97 0.0 0.9 0.00 0.00 0.00 61 1014.5
20260505020753 66 96 0.0 0.9 0.00 0.00 0.00 60 1014.8
20260505020248 66 102 0.0 0.0 0.00 0.00 0.00 61 1014.6
20260505015746 66 101 0.0 0.0 0.00 0.00 0.00 61 1014.6
20260505015243 66 96 0.0 0.9 0.00 0.00 0.00 62 1014.2
20260505014740 66 96 0.0 0.0 0.00 0.00 0.00 62 1014.3
20260505014237 66 103 0.0 0.0 0.00 0.00 0.00 62 1014.3
20260505013734 66 93 0.0 1.7 0.00 0.00 0.00 63 1014.4
20260505013231 66 93 0.0 0.9 0.00 0.00 0.00 62 1014.3
20260505012729 66 101 0.0 0.0 0.00 0.00 0.00 63 1014.2
20260505012226 66 101 0.0 0.0 0.00 0.00 0.00 64 1014.3
20260505011721 67 100 0.0 0.0 0.00 0.00 0.00 64 1014.3
20260505011219 67 100 0.0 0.0 0.00 0.00 0.00 64 1014.0
20260505010714 67 100 0.0 0.0 0.00 0.00 0.00 63 1014.0
20260505010211 68 101 0.0 0.0 0.00 0.00 0.00 62 1014.1
20260505005707 68 99 0.0 0.0 0.00 0.00 0.00 62 1014.0
20260505005205 68 93 0.0 0.9 0.00 0.00 0.00 62 1014.1
20260505004702 68 97 0.0 0.9 0.00 0.00 0.00 62 1014.0
20260505004158 68 99 0.0 0.0 0.00 0.00 0.00 62 1013.9
20260505003656 69 98 0.0 0.0 0.00 0.00 0.00 61 1013.8
20260505003153 69 99 0.0 0.0 0.00 0.00 0.00 60 1013.6
20260505002649 69 111 0.9 0.9 0.00 0.00 0.00 60 1013.8
20260505002148 69 128 0.9 1.7 0.00 0.00 0.00 60 1013.9
20260505001644 70 98 0.0 0.0 0.00 0.00 0.00 59 1013.9
20260505001142 70 104 0.0 0.9 0.00 0.00 0.00 60 1013.9
20260505000638 70 106 0.0 0.9 0.00 0.00 0.00 59 1013.6
20260505000137 71 97 0.0 0.9 0.00 0.00 0.00 58 1013.9
20260504235632 71 99 0.0 0.9 0.00 0.00 0.00 58 1013.9
20260504235129 71 102 0.9 1.7 0.00 0.00 0.00 57 1013.9
20260504234626 72 107 0.9 0.9 0.00 0.00 0.00 58 1013.6
20260504234124 72 116 0.9 0.9 0.00 0.00 0.00 57 1013.7
20260504233619 72 57 0.9 2.6 0.00 0.00 0.00 55 1013.7
20260504233115 72 101 0.9 0.9 0.00 0.00 0.00 58 1013.8
20260504232613 72 102 0.0 0.9 0.00 0.00 0.00 56 1013.5
20260504232110 72 101 0.0 0.9 0.00 0.00 0.00 57 1013.8
20260504231606 73 90 0.9 1.7 0.00 0.00 0.00 54 1013.6
20260504231102 73 129 0.9 1.7 0.00 0.00 0.00 54 1013.6
20260504230558 73 67 0.9 0.9 0.00 0.00 0.00 53 1013.7
20260504230053 74 72 0.9 1.7 0.00 0.00 0.00 52 1013.6
20260504225549 74 58 1.7 1.7 0.00 0.00 0.00 55 1013.4
20260504225046 74 82 0.9 1.7 0.00 0.00 0.00 56 1013.6
20260504224543 74 75 0.0 0.9 0.00 0.00 0.00 53 1013.3
20260504224040 75 82 0.9 1.7 0.00 0.00 0.00 54 1013.3
20260504223537 75 90 0.0 1.7 0.00 0.00 0.00 56 1013.4
20260504223032 75 98 0.0 0.0 0.00 0.00 0.00 55 1013.3
20260504222530 75 99 0.0 0.9 0.00 0.00 0.00 53 1013.4
20260504222027 75 81 0.9 0.9 0.00 0.00 0.00 51 1013.7
20260504221524 75 92 0.0 0.9 0.00 0.00 0.00 52 1013.6
20260504221021 75 111 0.0 1.7 0.00 0.00 0.00 55 1013.7
20260504220518 75 101 0.0 1.7 0.00 0.00 0.00 52 1013.7
20260504220015 76 111 0.9 1.7 0.00 0.00 0.00 51 1013.6
20260504215511 76 102 0.0 0.9 0.00 0.00 0.00 50 1013.7
20260504215009 77 94 0.9 0.9 0.00 0.00 0.00 52 1013.8
20260504214504 77 93 0.9 0.9 0.00 0.00 0.00 48 1013.7
20260504214001 77 78 0.9 1.7 0.00 0.00 0.00 50 1013.7
20260504213456 77 100 1.7 1.7 0.00 0.00 0.00 46 1013.8
20260504212955 77 84 0.9 1.7 0.00 0.00 0.00 47 1013.7
20260504212450 77 104 0.9 0.9 0.00 0.00 0.00 49 1013.6
20260504211948 77 86 1.7 1.7 0.00 0.00 0.00 47 1013.8
20260504211444 77 95 0.0 1.7 0.00 0.00 0.00 47 1014.1
20260504210942 77 115 0.9 0.9 0.00 0.00 0.00 48 1013.8
20260504210438 78 85 0.0 4.3 0.00 0.00 0.00 48 1013.8
20260504205935 77 96 0.0 0.9 0.00 0.00 0.00 48 1013.8
20260504205433 77 107 0.0 1.7 0.00 0.00 0.00 49 1013.9
20260504204931 77 107 0.9 1.7 0.00 0.00 0.00 46 1014.0
20260504204429 78 91 0.9 4.3 0.00 0.00 0.00 47 1014.0
20260504203928 78 87 0.9 1.7 0.00 0.00 0.00 46 1014.0
20260504203425 78 87 0.0 1.7 0.00 0.00 0.00 48 1014.0
20260504202921 78 64 1.7 1.7 0.00 0.00 0.00 47 1014.3
20260504202418 78 88 0.9 1.7 0.00 0.00 0.00 45 1014.3
20260504201914 78 109 0.9 1.7 0.00 0.00 0.00 47 1014.3
20260504201412 78 103 0.9 0.9 0.00 0.00 0.00 47 1014.3
20260504200909 78 69 0.0 1.7 0.00 0.00 0.00 50 1014.3
20260504200406 78 101 0.0 1.7 0.00 0.00 0.00 49 1014.4
20260504195903 78 90 0.9 5.2 0.00 0.00 0.00 51 1014.5
20260504195358 77 90 0.0 0.9 0.00 0.00 0.00 50 1014.6
20260504194855 77 84 0.9 0.9 0.00 0.00 0.00 50 1014.6
20260504194351 77 108 0.9 1.7 0.00 0.00 0.00 51 1014.7